Location: Bishausen
(51.6334°N, 9.9631°E)
Time: 10:24:57
(UTC+00:00)

ASTEX 1 - Pass Details

Date: 23 May 2024
Orbit: 715 x 740 km, 92.7° (Epoch: 23 June)

Event Time Altitude Azimuth Distance (km) Brightness Sun altitude
Rises 02:28:45 0° 159° (SSE) 3,151 6.4 -6.5°
Reaches altitude 10° 02:31:05 10° 156° (SSE) 2,229 5.7 -6.2°
Maximum altitude 02:35:54 57° 78° (ENE) 862 4.2 -5.7°
Drops below altitude 10° 02:40:43 10° 1° (N) 2,230 6.6 -5.1°
Sets 02:43:02 0° 358° (N) 3,152 7.3 -4.9°
